Location: Asheville, NC
(35.6000°N, 82.5500°W)
Time: 11:57:27
(UTC-04:00)

Vanguard 2 - Pass Details

Date: 15 March 2018
Orbit: 553 x 2939 km, 32.9° (Epoch: 20 June)

Event Time Altitude Azimuth Distance (km) Brightness Sun altitude
Rises 12:31:14 0° 252° (WSW) 5,565 11.9 49.2°
Reaches altitude 10° 12:34:26 10° 251° (WSW) 4,820 11.7 49.5°
Maximum altitude 12:49:26 77° 169° (SSE) 2,883 11.8 50.7°
Drops below altitude 10° 13:07:26 10° 87° (E) 5,644 12.1 51.7°
Sets 13:11:33 0° 86° (E) 6,518 12.3 51.9°
